Time,TemperatureF,DewpointF,PressureIn,WindDirection,WindDirectionDegrees,WindSpeedMPH,WindSpeedGustMPH,Humidity,HourlyPrecipIn,Conditions,Clouds,dailyrainin,SolarRadiationWatts/m^2,SoftwareType,DateUTC
2013-06-17 00:02:00,83.0,48.0,30.03,SSE,147,4.0,8.0,28,-99.99,,,-99.99,0.000000,,2013-06-17 06:02:00,
2013-06-17 00:12:00,83.0,47.0,30.03,WSW,242,2.0,8.0,28,-99.99,,,-99.99,0.000000,,2013-06-17 06:12:00,
2013-06-17 00:22:00,83.0,47.0,30.03,East,89,3.0,9.0,28,-99.99,,,-99.99,0.000000,,2013-06-17 06:22:00,
2013-06-17 00:33:00,83.0,47.0,30.03,East,89,3.0,9.0,28,-99.99,,,-99.99,0.000000,,2013-06-17 06:33:00,
2013-06-17 00:43:00,82.0,47.0,30.03,East,98,9.0,12.0,29,-99.99,,,-99.99,0.000000,,2013-06-17 06:43:00,
2013-06-17 00:53:00,82.0,48.0,30.02,ESE,110,7.0,10.0,30,-99.99,,,-99.99,0.000000,,2013-06-17 06:53:00,
2013-06-17 01:02:00,82.0,48.0,30.02,ESE,110,7.0,10.0,30,-99.99,,,-99.99,0.000000,,2013-06-17 07:02:00,
2013-06-17 01:12:00,80.0,50.0,30.02,ESE,111,8.0,12.0,34,-99.99,,,-99.99,0.000000,,2013-06-17 07:12:00,
2013-06-17 01:22:00,80.0,52.0,30.02,SE,126,6.0,10.0,37,-99.99,,,-99.99,0.000000,,2013-06-17 07:22:00,
2013-06-17 01:33:00,80.0,52.0,30.02,SE,126,6.0,10.0,37,-99.99,,,-99.99,0.000000,,2013-06-17 07:33:00,
2013-06-17 01:43:00,79.0,52.0,30.02,SE,133,3.0,8.0,40,-99.99,,,-99.99,0.000000,,2013-06-17 07:43:00,
2013-06-17 01:53:00,78.0,53.0,30.01,ESE,123,8.0,11.0,42,-99.99,,,-99.99,0.000000,,2013-06-17 07:53:00,
2013-06-17 02:01:00,78.0,53.0,30.01,ESE,123,8.0,11.0,42,-99.99,,,-99.99,0.000000,,2013-06-17 08:01:00,
2013-06-17 02:11:00,77.0,54.0,30.00,ESE,111,7.0,9.0,43,-99.99,,,-99.99,0.000000,,2013-06-17 08:11:00,
2013-06-17 02:22:00,76.0,54.0,30.00,East,93,5.0,10.0,45,-99.99,,,-99.99,0.000000,,2013-06-17 08:22:00,
2013-06-17 02:33:00,76.0,54.0,30.00,East,93,5.0,10.0,45,-99.99,,,-99.99,0.000000,,2013-06-17 08:33:00,
2013-06-17 02:43:00,75.0,54.0,30.01,NW,309,5.0,10.0,47,-99.99,,,-99.99,0.000000,,2013-06-17 08:43:00,
2013-06-17 02:53:00,75.0,54.0,30.00,North,1,2.0,7.0,47,-99.99,,,-99.99,0.000000,,2013-06-17 08:53:00,
2013-06-17 03:02:00,75.0,54.0,30.00,North,1,2.0,7.0,47,-99.99,,,-99.99,0.000000,,2013-06-17 09:02:00,
2013-06-17 03:11:00,74.0,54.0,30.00,NNE,23,2.0,6.0,48,-99.99,,,-99.99,0.000000,,2013-06-17 09:11:00,
2013-06-17 03:22:00,73.0,54.0,30.00,NE,52,2.0,6.0,51,-99.99,,,-99.99,0.000000,,2013-06-17 09:22:00,
2013-06-17 03:34:00,73.0,54.0,30.00,NE,52,2.0,6.0,51,-99.99,,,-99.99,0.000000,,2013-06-17 09:34:00,
2013-06-17 03:43:00,73.0,55.0,30.00,ENE,78,0.0,3.0,52,-99.99,,,-99.99,0.000000,,2013-06-17 09:43:00,
2013-06-17 03:53:00,73.0,55.0,30.00,North,0,0.0,0.0,52,-99.99,,,-99.99,0.000000,,2013-06-17 09:53:00,
2013-06-17 04:00:00,72.0,55.0,30.00,SE,126,2.0,6.0,55,-99.99,,,-99.99,0.000000,,2013-06-17 10:00:00,
2013-06-17 04:02:00,73.0,55.0,30.00,North,0,0.0,0.0,52,-99.99,,,-99.99,0.000000,,2013-06-17 10:02:00,
2013-06-17 04:12:00,72.0,54.0,30.00,ENE,63,2.0,7.0,53,-99.99,,,-99.99,0.000000,,2013-06-17 10:12:00,
2013-06-17 04:22:00,72.0,55.0,30.00,SE,126,2.0,6.0,55,-99.99,,,-99.99,0.000000,,2013-06-17 10:22:00,
2013-06-17 04:33:00,72.0,55.0,30.00,SE,126,2.0,6.0,55,-99.99,,,-99.99,0.000000,,2013-06-17 10:33:00,
2013-06-17 04:43:00,72.0,55.0,30.00,SE,126,2.0,6.0,55,-99.99,,,-99.99,0.000000,,2013-06-17 10:43:00,
2013-06-17 04:54:00,72.0,55.0,30.00,SE,126,2.0,6.0,55,-99.99,,,-99.99,0.000000,,2013-06-17 10:54:00,
2013-06-17 06:12:00,68.0,52.0,30.02,North,11,6.0,9.0,56,-99.99,,,-99.99,0.000000,,2013-06-17 12:12:00,
2013-06-17 06:22:00,67.0,53.0,30.03,NNE,12,4.0,8.0,59,-99.99,,,-99.99,1.390000,,2013-06-17 12:22:00,
2013-06-17 06:33:00,67.0,53.0,30.03,NNE,12,4.0,8.0,59,-99.99,,,-99.99,1.390000,,2013-06-17 12:33:00,
2013-06-17 06:43:00,68.0,53.0,30.03,NNE,15,0.0,5.0,59,-99.99,,,-99.99,7.670000,,2013-06-17 12:43:00,
2013-06-17 06:53:00,67.0,52.0,30.04,NNW,333,6.0,9.0,57,-99.99,,,-99.99,25.100000,,2013-06-17 12:53:00,
2013-06-17 07:01:00,67.0,52.0,30.04,NNW,333,6.0,9.0,57,-99.99,,,-99.99,25.100000,,2013-06-17 13:01:00,
2013-06-17 07:12:00,68.0,52.0,30.05,North,351,5.0,8.0,56,-99.99,,,-99.99,58.580002,,2013-06-17 13:12:00,
2013-06-17 07:22:00,69.0,53.0,30.05,North,351,4.0,8.0,57,-99.99,,,-99.99,101.809998,,2013-06-17 13:22:00,
2013-06-17 07:32:00,69.0,53.0,30.05,North,351,4.0,8.0,57,-99.99,,,-99.99,101.809998,,2013-06-17 13:32:00,
2013-06-17 07:43:00,70.0,54.0,30.05,NNW,347,0.0,3.0,56,-99.99,,,-99.99,143.649994,,2013-06-17 13:43:00,
2013-06-17 07:53:00,71.0,55.0,30.05,NNE,16,3.0,6.0,55,-99.99,,,-99.99,186.889999,,2013-06-17 13:53:00,
2013-06-17 08:02:00,71.0,55.0,30.05,NNE,16,3.0,6.0,55,-99.99,,,-99.99,186.889999,,2013-06-17 14:02:00,
2013-06-17 08:12:00,74.0,56.0,30.05,ENE,72,2.0,7.0,52,-99.99,,,-99.99,231.509995,,2013-06-17 14:12:00,
2013-06-17 08:22:00,76.0,57.0,30.06,East,85,4.0,7.0,51,-99.99,,,-99.99,277.540009,,2013-06-17 14:22:00,
2013-06-17 08:34:00,76.0,57.0,30.06,East,85,4.0,7.0,51,-99.99,,,-99.99,277.540009,,2013-06-17 14:34:00,
2013-06-17 08:43:00,77.0,57.0,30.06,East,85,5.0,8.0,49,-99.99,,,-99.99,323.559998,,2013-06-17 14:43:00,
2013-06-17 08:53:00,78.0,57.0,30.07,ENE,74,2.0,8.0,48,-99.99,,,-99.99,369.589996,,2013-06-17 14:53:00,
2013-06-17 09:01:00,78.0,57.0,30.07,ENE,74,2.0,8.0,48,-99.99,,,-99.99,369.589996,,2013-06-17 15:01:00,
2013-06-17 09:12:00,81.0,56.0,30.07,NE,47,0.0,5.0,43,-99.99,,,-99.99,416.309998,,2013-06-17 15:12:00,
2013-06-17 09:22:00,82.0,55.0,30.07,NE,46,0.0,0.0,38,-99.99,,,-99.99,458.149994,,2013-06-17 15:22:00,
2013-06-17 09:33:00,82.0,55.0,30.07,NE,46,0.0,0.0,38,-99.99,,,-99.99,458.149994,,2013-06-17 15:33:00,
2013-06-17 09:43:00,84.0,54.0,30.08,NE,46,0.0,1.0,36,-99.99,,,-99.99,499.290009,,2013-06-17 15:43:00,
2013-06-17 09:52:00,85.0,54.0,30.07,North,0,0.0,0.0,34,-99.99,,,-99.99,533.460022,,2013-06-17 15:52:00,
2013-06-17 10:02:00,85.0,54.0,30.07,North,0,0.0,0.0,34,-99.99,,,-99.99,533.460022,,2013-06-17 16:02:00,
2013-06-17 10:12:00,85.0,53.0,30.07,NE,55,0.0,0.0,33,-99.99,,,-99.99,587.150024,,2013-06-17 16:12:00,
2013-06-17 10:22:00,86.0,52.0,30.07,WNW,293,0.0,6.0,30,-99.99,,,-99.99,642.940002,,2013-06-17 16:22:00,
2013-06-17 10:33:00,86.0,52.0,30.07,WNW,293,0.0,6.0,30,-99.99,,,-99.99,642.940002,,2013-06-17 16:33:00,
2013-06-17 10:43:00,87.0,52.0,30.07,North,0,0.0,0.0,30,-99.99,,,-99.99,670.140015,,2013-06-17 16:43:00,
2013-06-17 10:54:00,89.0,52.0,30.07,North,353,0.0,6.0,28,-99.99,,,-99.99,706.400024,,2013-06-17 16:54:00,
2013-06-17 11:02:00,89.0,52.0,30.07,North,353,0.0,6.0,28,-99.99,,,-99.99,706.400024,,2013-06-17 17:02:00,
2013-06-17 11:12:00,89.0,52.0,30.06,NNW,346,1.0,9.0,27,-99.99,,,-99.99,671.530029,,2013-06-17 17:12:00,
2013-06-17 11:22:00,90.0,51.0,30.05,North,11,2.0,11.0,26,-99.99,,,-99.99,756.609985,,2013-06-17 17:22:00,
2013-06-17 11:33:00,90.0,51.0,30.05,North,11,2.0,11.0,26,-99.99,,,-99.99,756.609985,,2013-06-17 17:33:00,
2013-06-17 11:43:00,91.0,51.0,30.05,North,11,2.0,8.0,25,-99.99,,,-99.99,764.969971,,2013-06-17 17:43:00,
2013-06-17 11:52:00,91.0,50.0,30.05,North,11,2.0,11.0,24,-99.99,,,-99.99,777.530029,,2013-06-17 17:52:00,
2013-06-17 12:02:00,91.0,50.0,30.05,North,11,2.0,11.0,24,-99.99,,,-99.99,777.530029,,2013-06-17 18:02:00,
2013-06-17 12:12:00,92.0,50.0,30.04,NE,37,3.0,12.0,24,-99.99,,,-99.99,860.510010,,2013-06-17 18:12:00,
2013-06-17 12:23:00,92.0,49.0,30.04,NNE,22,4.0,11.0,23,-99.99,,,-99.99,260.109985,,2013-06-17 18:23:00,
2013-06-17 12:33:00,92.0,49.0,30.04,NNE,22,4.0,11.0,23,-99.99,,,-99.99,260.109985,,2013-06-17 18:33:00,
2013-06-17 12:43:00,92.0,49.0,30.04,NNE,22,4.0,11.0,23,-99.99,,,-99.99,260.109985,,2013-06-17 18:43:00,
2013-06-17 13:54:00,79.0,60.0,30.05,ENE,75,8.0,14.0,51,-99.99,,,-99.99,763.580017,,2013-06-17 19:54:00,
2013-06-17 14:02:00,79.0,60.0,30.05,ENE,75,8.0,14.0,51,-99.99,,,-99.99,763.580017,,2013-06-17 20:02:00,
2013-06-17 14:11:00,83.0,58.0,30.05,NNE,24,3.0,7.0,42,-99.99,,,-99.99,460.239990,,2013-06-17 20:11:00,
2013-06-17 14:22:00,85.0,57.0,30.03,NE,34,8.0,13.0,38,-99.99,,,-99.99,958.830017,,2013-06-17 20:22:00,
2013-06-17 14:34:00,85.0,57.0,30.03,NE,34,8.0,13.0,38,-99.99,,,-99.99,958.830017,,2013-06-17 20:34:00,
2013-06-17 14:43:00,87.0,56.0,30.02,East,79,6.0,10.0,34,-99.99,,,-99.99,900.950012,,2013-06-17 20:43:00,
2013-06-17 14:52:00,88.0,52.0,30.01,East,96,3.0,8.0,29,-99.99,,,-99.99,888.400024,,2013-06-17 20:52:00,
2013-06-17 15:01:00,88.0,52.0,30.01,East,96,3.0,8.0,29,-99.99,,,-99.99,888.400024,,2013-06-17 21:01:00,
2013-06-17 15:12:00,91.0,52.0,30.00,ENE,75,1.0,6.0,26,-99.99,,,-99.99,856.330017,,2013-06-17 21:12:00,
2013-06-17 15:22:00,92.0,51.0,29.98,North,0,0.0,0.0,24,-99.99,,,-99.99,822.159973,,2013-06-17 21:22:00,
2013-06-17 15:33:00,92.0,51.0,29.98,North,0,0.0,0.0,24,-99.99,,,-99.99,822.159973,,2013-06-17 21:33:00,
2013-06-17 15:43:00,93.0,48.0,29.97,North,0,0.0,0.0,22,-99.99,,,-99.99,821.460022,,2013-06-17 21:43:00,
2013-06-17 15:52:00,94.0,47.0,29.97,SE,129,0.0,0.0,20,-99.99,,,-99.99,799.140015,,2013-06-17 21:52:00,
2013-06-17 16:01:00,94.0,47.0,29.97,SE,129,0.0,0.0,20,-99.99,,,-99.99,799.140015,,2013-06-17 22:01:00,
2013-06-17 16:11:00,94.0,49.0,29.97,North,0,0.0,0.0,21,-99.99,,,-99.99,698.729980,,2013-06-17 22:11:00,
2013-06-17 16:22:00,93.0,49.0,29.97,ESE,107,4.0,10.0,22,-99.99,,,-99.99,208.500000,,2013-06-17 22:22:00,
2013-06-17 16:33:00,93.0,49.0,29.97,ESE,107,4.0,10.0,22,-99.99,,,-99.99,208.500000,,2013-06-17 22:33:00,
2013-06-17 16:43:00,92.0,49.0,29.97,ESE,106,0.0,6.0,22,-99.99,,,-99.99,70.430000,,2013-06-17 22:43:00,
2013-06-17 16:53:00,92.0,49.0,29.97,ESE,106,0.0,6.0,22,-99.99,,,-99.99,70.430000,,2013-06-17 22:53:00,
2013-06-17 17:02:00,92.0,49.0,29.97,ESE,106,0.0,6.0,22,-99.99,,,-99.99,70.430000,,2013-06-17 23:02:00,
2013-06-17 17:11:00,92.0,49.0,29.97,ESE,106,0.0,6.0,22,-99.99,,,-99.99,70.430000,,2013-06-17 23:11:00,